This is the latest recevied weather packets stored in our database for station/object K7AEL. If no packets are shown the sender has not sent any weather packets the latest 10 day(s).
| Time | Temp. | Humidity | Pressure | Rain* | Wind** | Luminosity | Snow |
|---|---|---|---|---|---|---|---|
| 1778003185 | 19.44° C | 61% | 1013.8 hPa | 0 mm | - | 169 W/m² | - |
| 1778002881 | 20° C | 61% | 1013.8 hPa | 0 mm | - | 178 W/m² | - |
| 1778002578 | 19.44° C | 62% | 1014 hPa | 0 mm | - | 201 W/m² | - |
| 1778002274 | 19.44° C | 61% | 1014 hPa | 0 mm | - | 117 W/m² | - |
| 1778001972 | 19.44° C | 62% | 1013.9 hPa | 0 mm | - | 127 W/m² | - |
| 1778001669 | 20° C | 61% | 1014 hPa | 0 mm | - | 177 W/m² | - |
| 1778001363 | 20° C | 60% | 1013.9 hPa | 0 mm | - | 605 W/m² | - |
| 1778001061 | 20° C | 60% | 1013.9 hPa | 0 mm | - | 158 W/m² | - |
| 1778000757 | 20° C | 59% | 1013.9 hPa | 0 mm | - | 820 W/m² | - |
| 1778000454 | 20° C | 60% | 1013.9 hPa | 0 mm | - | 214 W/m² | - |
| 1778000149 | 20° C | 59% | 1013.8 hPa | 0 mm | - | 666 W/m² | - |
| 1777999845 | 20° C | 59% | 1014 hPa | 0 mm | - | 195 W/m² | - |
| 1777999541 | 19.44° C | 60% | 1013.9 hPa | 0 mm | - | 859 W/m² | - |
| 1777999239 | 20° C | 60% | 1014.1 hPa | 0 mm | - | 249 W/m² | - |
| 1777998938 | 19.44° C | 62% | 1013.9 hPa | 0 mm | - | 590 W/m² | - |
| 1777998633 | 19.44° C | 61% | 1013.8 hPa | 0 mm | - | 351 W/m² | - |
| 1777998327 | 19.44° C | 62% | 1013.9 hPa | 0 mm | - | 255 W/m² | - |
| 1777998024 | 18.89° C | 65% | 1013.9 hPa | 0 mm | - | 366 W/m² | - |
| 1777997720 | 18.33° C | 67% | 1013.9 hPa | 0 mm | - | 273 W/m² | - |
| 1777997418 | 18.33° C | 68% | 1014.1 hPa | 0 mm | - | 226 W/m² | - |
| 1777997116 | 17.78° C | 69% | 1014 hPa | 0 mm | - | 175 W/m² | - |
| 1777996813 | 17.78° C | 70% | 1013.8 hPa | 0 mm | - | 111 W/m² | - |
| 1777996509 | 17.78° C | 71% | 1013.9 hPa | 0 mm | - | 106 W/m² | - |
| 1777996205 | 17.78° C | 71% | 1014 hPa | 0 mm | - | 89 W/m² | - |
| 1777995896 | 17.78° C | 73% | 1014 hPa | 0 mm | - | 92 W/m² | - |
* Rain latest hour (hover to see other rain measurements)
** Current wind speed in m/s (hover to see current wind gust speed)